User: anonymous   Login
Location: Lima
(44.6384°N, 112.5920°W)
Time: 05:37:59
(UTC+00:00)
Language:

Oscar 11 - Orbit

View from above orbital plane
View from above orbital plane
View from above satellite
View from above satellite

Ground track
Ground track

The orbit data is extracted from the following two-line orbital elements,

1 14781U 84021B   24112.41491761  .00004307  00000-0  49376-3 0  9995
2 14781  97.7002  83.4187 0006374 262.3139  97.7353 14.86402174140056
Epoch (UTC): 21 April 2024 09:57:28
Eccentricity: 0.0006374
inclination: 97.7002°
perigee height: 605 km
apogee height: 613 km
right ascension of ascending node: 83.4187°
argument of perigee: 262.3139°
revolutions per day: 14.86402174
mean anomaly at epoch: 97.7353°
orbit number at epoch: 14005

The dashed part of the orbit path shows where the satellite is in the earth's shadow,  

DLR